Home > Weather > Windsor > Past weeks

Flag for Canada Weather for the Past 2 Weeks in Windsor, Ontario, Canada

Now
19 °F

Light snow. Overcast.


Feels Like: 4 °F
Forecast: 15 / 24 °F
Wind: 17 mph from Northwest

Location: Windsor Weather Station

Current Time: Feb 10, 2016 at 3:25:47 PM

Latest Report: Feb 10, 2016 at 2:00 PM


Visibility: 7 mi

Pressure: 29.86 "Hg

Humidity: 68%

Dew point: 10 °F

Location of WindsorLocation

Historic Weather in Windsor — Graph

°F

Windsor Temperature Yesterday

Maximum temperature yesterday: 34 °F (at 12:00 AM)
Minimum temperature yesterday: 25 °F (at 10:00 PM)
Average temperature yesterday: 30 °F

High & Low Weather Summary for the Past Weeks

 TemperatureHumidityPressure
High55 °F (Feb 3, 11:00 AM)100% (Feb 2, 1:00 AM)30.39 "Hg (Feb 2, 1:00 AM)
Low19 °F (Feb 10, 8:00 AM)43% (Jan 29, 3:00 PM)29.46 "Hg (Feb 3, 6:00 AM)
Average34 °F79%29.89 "Hg
* Reported Jan 26 2:00 PM — Feb 10 2:00 PM, Windsor, Weather by CustomWeather, © 2016

Note: Actual official high and low records may vary slightly from our data, if they occured in-between our weather recording intervals... More about our weather records

Advertising

Windsor Weather History for the Previous 24 Hours

 ConditionsComfort  
Time TempWeatherWind HumidityBarometerVisibility
2:00 PM
Wed, Feb 10
19 °FLight snow. Overcast.17 mph68%29.86 "Hg7 mi
1:00 PM21 °FLight snow. Partly sunny.21 mph54%29.85 "Hg12 mi
12:00 PM19 °FLight snow. Partly sunny.15 mph79%29.86 "Hg3 mi
11:00 AM19 °FLight snow. Partly sunny.14 mph79%29.85 "Hg10 mi
10:00 AM19 °FLight snow. Partly sunny.10 mph86%29.83 "Hg7 mi
9:00 AM19 °FLight snow. Partly sunny.14 mph86%29.81 "Hg5 mi
8:00 AM19 °FLight snow. Overcast.16 mph79%29.80 "Hg5 mi
7:00 AM21 °FLight snow. Overcast.15 mph80%29.78 "Hg6 mi
6:00 AM23 °FLight snow. Overcast.15 mph74%29.76 "Hg6 mi
5:00 AM23 °FLight snow. Overcast.12 mph68%29.75 "Hg12 mi
4:00 AM23 °FLight snow. Overcast.20 mph74%29.73 "Hg12 mi
3:00 AM23 °FLight snow. Overcast.10 mph86%29.73 "Hg5 mi
2:00 AM23 °FLight snow. Overcast.16 mph86%29.72 "Hg8 mi
1:00 AM25 °FLight snow. Mostly cloudy.13 mph86%29.72 "Hg6 mi
12:00 AM25 °FLight snow. Overcast.14 mph86%29.72 "Hg5 mi
11:00 PM
Tue, Feb 9
25 °FLight snow. Overcast.15 mph80%29.72 "Hg8 mi
10:00 PM25 °FLight snow. Overcast.16 mph86%29.72 "Hg4 mi
9:00 PM27 °FLight snow. Mostly cloudy.15 mph86%29.72 "Hg1 mi
8:00 PM27 °FLight snow. Mostly cloudy.15 mph93%29.70 "Hg1 mi
7:00 PM27 °FLight snow. Low clouds.14 mph93%29.69 "Hg2 mi
6:00 PM27 °FLight snow. Low clouds.15 mph93%29.67 "Hg2 mi
5:00 PM28 °FLight snow. Low clouds.14 mph93%29.65 "Hg2 mi
4:00 PM28 °FLight snow. Overcast.15 mph93%29.62 "Hg2 mi
3:00 PM28 °FLight snow. More clouds than sun.16 mph93%29.59 "Hg1 mi
Weather by CustomWeather, © 2016

See weather overviewHow to use our weather pages